Theta_e
314 314 316 320 320 321 323 324 326 325 324 321 320 320 319 322 322 322 321 321 320 320 320 320 320 319 320 320 319 319 320 320 320 324 326 324 319 320 319 319 318 321 331 330 331 335 333 335 336 338 340 341 341 340 339 339 338 336 335 335 334 333 333 332 330 329 329 331 331 328 324 320 318 318 319 320 319 321 327 329 328 330 329 329 332 333 334 333 333 332 330 328 326 324 322 320 319
314 315 318 320 321 324 326 325 325 323 321 320 320 319 319 322 322 321 321 320 320 319 320 320 320 319 320 320 320 319 320 321 321 324 326 327 323 319 318 319 318 323 334 333 333 335 334 335 336 337 340 341 341 340 340 340 339 337 336 335 335 334 333 332 330 329 328 329 331 329 323 318 318 318 320 320 319 320 326 329 327 329 328 328 331 334 335 334 333 332 331 331 329 328 327 325 323
314 317 320 322 324 324 326 324 324 321 319 318 318 319 320 321 321 320 320 319 320 319 320 320 320 320 321 320 320 319 320 322 323 324 326 329 326 318 318 318 319 326 335 336 334 334 335 336 336 337 338 340 340 340 340 340 339 337 335 334 334 334 333 332 330 329 328 329 329 326 321 318 319 319 320 321 320 319 323 328 327 328 329 329 331 333 335 334 333 333 332 331 329 328 327 327 326
316 319 322 324 327 325 326 327 325 321 318 317 317 321 321 321 320 319 320 320 320 319 320 320 320 319 320 319 319 320 320 322 323 323 322 321 319 316 318 318 319 324 333 339 336 333 337 338 338 338 337 339 339 339 339 339 339 337 335 335 335 334 333 332 330 329 330 332 332 327 322 319 319 320 320 321 321 320 321 326 327 326 329 330 330 332 334 334 333 332 332 330 326 323 321 320 321
318 321 321 324 328 326 325 325 324 322 319 318 317 320 320 319 319 319 319 319 318 318 319 320 319 318 319 319 320 320 320 322 321 320 319 317 317 316 317 318 318 320 329 340 339 333 337 340 339 338 337 339 339 338 338 338 339 337 335 335 335 335 334 332 331 331 332 333 333 330 325 321 320 320 321 321 322 321 320 324 327 325 327 330 330 331 333 333 333 332 330 327 321 315 312 312 312
319 321 320 321 325 324 324 322 321 321 320 320 318 319 319 318 319 318 318 318 317 317 319 319 319 318 319 319 319 318 319 321 321 319 318 318 317 316 317 318 319 319 324 338 341 335 335 338 338 338 338 338 339 338 338 337 337 337 336 335 335 336 335 333 331 331 332 333 333 332 329 324 321 321 322 323 324 323 321 322 325 324 325 328 330 330 331 332 332 330 327 321 314 310 308 308 308
321 323 322 323 324 323 327 323 320 321 320 321 319 319 319 318 318 318 317 317 317 316 317 319 318 318 319 320 318 317 316 319 319 318 318 318 316 316 316 317 319 319 326 337 339 335 333 335 335 337 337 337 338 338 337 336 336 336 336 336 335 335 335 334 331 330 331 333 333 333 332 329 324 322 323 326 326 325 323 322 322 323 323 324 327 329 330 331 330 326 321 316 313 310 307 307 308
321 324 323 326 328 324 327 325 322 322 320 320 319 319 318 318 319 318 318 317 317 318 317 317 318 317 318 320 320 317 315 316 316 316 318 317 316 316 315 316 317 318 328 337 335 333 332 331 331 334 336 337 337 337 337 337 337 336 336 336 334 334 334 333 332 330 330 332 333 333 332 332 328 325 324 327 328 326 325 324 325 326 324 323 325 325 326 327 325 320 316 316 318 313 307 306 307
321 323 322 326 328 323 324 324 321 320 320 320 318 318 318 318 319 318 318 317 317 318 317 317 317 317 319 319 319 317 315 315 314 315 316 316 316 315 315 315 316 316 323 329 329 330 330 326 327 332 335 336 336 337 337 337 337 336 336 336 335 334 334 333 333 331 330 330 332 333 332 332 330 328 327 329 329 328 327 326 328 328 327 326 324 322 321 320 319 317 318 321 322 317 309 306 306
321 322 323 326 326 321 321 322 322 321 320 320 318 318 318 318 318 318 318 317 318 318 317 318 317 317 319 319 318 316 315 315 314 314 314 315 316 315 315 314 315 315 318 321 320 322 323 323 325 330 333 335 336 336 336 337 337 337 336 336 335 334 333 333 332 332 330 330 331 332 332 332 330 329 329 330 331 330 329 329 329 329 328 327 326 324 323 322 322 322 324 326 324 320 312 306 305
322 321 322 325 323 319 320 321 322 322 320 319 319 318 318 318 318 318 318 318 317 318 317 317 318 317 318 318 317 315 314 314 314 314 314 314 315 315 315 314 315 315 316 318 317 316 318 320 322 326 330 333 335 335 336 337 337 337 336 336 335 334 334 333 332 332 330 329 330 330 331 331 330 331 330 331 332 332 331 331 331 330 329 328 328 328 327 327 328 328 327 326 324 322 315 307 305
323 323 322 323 323 322 322 323 323 322 320 319 318 317 317 318 318 318 318 318 318 318 317 317 317 317 318 318 315 314 313 314 314 314 315 314 314 314 315 315 315 315 315 317 317 316 317 318 320 323 326 329 333 334 336 336 336 337 336 336 335 335 334 333 333 332 331 329 329 329 329 330 330 330 330 331 332 332 332 331 331 331 331 329 329 328 328 328 328 327 326 324 323 322 317 309 305
322 324 322 322 325 325 323 323 323 322 321 319 318 317 317 318 318 318 318 318 318 317 317 316 317 317 318 318 315 315 314 314 314 314 314 314 314 314 315 315 315 315 315 316 316 315 316 317 318 320 322 326 330 333 334 335 335 336 336 336 335 334 334 333 333 332 332 330 329 327 327 329 329 328 329 330 331 331 331 330 331 331 331 330 328 328 327 327 326 325 324 323 321 321 319 311 305
321 321 321 323 325 323 322 323 323 322 320 319 318 317 317 318 317 318 318 318 317 317 316 316 317 317 317 317 316 316 315 314 314 314 314 314 314 313 314 315 315 315 315 315 315 315 315 315 316 317 319 322 326 329 331 333 334 335 335 336 335 334 334 333 332 332 332 330 328 326 326 327 328 327 326 328 329 330 329 329 330 330 331 330 328 327 326 325 324 323 323 322 321 321 319 312 307
320 319 321 324 322 320 323 325 324 321 320 319 318 317 317 317 317 317 318 318 317 317 317 316 316 317 316 317 317 316 315 314 314 314 314 314 314 314 314 314 315 316 315 315 315 315 315 315 315 315 316 318 322 325 328 330 332 333 334 335 335 334 334 334 333 332 331 331 328 325 324 325 327 326 324 326 328 329 328 326 328 329 330 331 329 327 326 326 324 323 323 322 321 321 319 314 309
317 319 323 322 319 319 321 323 323 321 319 318 317 318 318 317 317 317 317 317 317 317 317 316 316 316 316 316 315 314 314 314 314 314 314 314 314 314 314 314 315 316 316 316 315 315 315 315 315 314 315 315 318 322 325 327 329 331 334 333 333 334 334 333 333 333 332 332 329 326 325 324 325 325 324 326 327 328 327 326 327 328 330 330 329 328 328 327 325 324 325 323 322 322 320 315 311
315 321 324 320 320 319 319 321 322 320 319 318 317 317 318 318 317 317 317 316 316 317 317 316 316 315 315 314 314 314 314 314 313 313 313 314 316 317 316 315 314 315 316 316 315 315 315 315 315 315 315 315 315 317 323 328 326 328 332 332 333 333 333 333 333 333 333 333 331 327 325 324 325 325 325 326 327 328 328 327 327 328 328 328 327 327 328 327 326 325 325 323 321 322 320 316 313
320 326 323 320 321 319 319 320 320 320 320 318 317 318 318 318 317 317 317 316 317 317 316 316 315 314 314 314 314 314 314 314 314 313 313 314 316 318 317 315 314 314 315 316 316 315 315 315 315 315 315 316 316 314 320 327 326 327 330 331 331 332 332 332 332 333 334 334 332 330 327 325 326 326 327 329 328 329 329 329 328 328 328 327 327 327 328 328 328 326 324 323 322 322 320 316 315
322 326 323 320 321 320 319 320 319 320 320 318 318 317 317 318 318 317 317 317 317 317 315 315 315 314 314 314 313 313 314 314 314 313 313 313 314 315 315 314 314 314 314 314 315 316 315 315 314 315 316 316 317 316 318 322 324 327 331 331 331 331 332 332 331 332 333 334 332 332 330 329 329 328 328 329 329 329 330 329 328 328 328 328 327 328 329 330 329 327 325 325 325 324 321 318 318
321 323 323 321 319 318 319 319 318 318 319 319 318 317 316 317 317 317 317 317 317 316 315 316 315 314 314 314 313 313 313 313 313 313 313 313 312 313 313 313 313 313 314 314 314 314 315 315 315 315 315 315 317 318 318 319 323 327 330 332 331 331 332 331 331 330 331 333 333 332 332 331 331 330 328 328 328 328 327 327 328 329 329 329 328 329 331 330 329 328 326 326 326 325 323 322 322
320 320 321 319 317 318 318 318 318 317 318 318 318 317 316 317 317 316 316 317 317 315 314 315 315 314 314 314 312 312 312 312 313 313 313 313 313 313 312 312 313 313 313 313 313 313 314 315 315 315 315 315 316 318 319 321 326 328 329 331 331 332 332 332 331 331 332 333 334 333 332 332 332 332 331 330 329 328 328 328 329 328 328 329 328 328 329 328 329 328 326 326 327 326 325 324 325
319 319 319 318 317 318 317 318 317 316 316 317 317 316 317 317 317 317 317 317 317 315 314 314 314 314 313 313 312 312 312 313 313 313 313 313 313 313 313 313 313 313 312 313 313 313 314 313 314 315 314 315 315 318 320 322 328 329 328 331 332 332 333 333 333 333 333 333 333 333 333 333 332 332 332 331 330 331 331 330 329 328 328 328 328 328 328 327 327 328 327 327 327 326 326 325 324
320 320 318 318 318 318 318 317 317 316 316 317 317 316 317 317 316 317 317 316 316 314 313 313 312 312 312 312 312 312 312 312 313 312 313 313 313 313 313 313 313 313 313 313 313 313 313 313 313 313 313 314 314 317 319 322 328 330 329 330 331 333 332 332 334 334 333 333 334 334 333 333 332 332 332 330 330 330 331 331 330 329 329 328 328 328 328 327 327 327 327 327 327 327 326 325 324
320 320 319 318 317 318 318 317 316 316 316 316 316 316 316 316 316 316 316 315 315 314 313 312 312 311 312 312 312 312 312 312 312 312 312 313 313 313 313 313 313 313 313 313 313 313 313 313 313 313 313 313 314 316 318 323 329 330 329 330 330 331 331 331 332 333 334 334 335 334 332 331 330 331 331 331 331 330 330 331 331 330 329 328 329 328 328 328 326 326 326 326 327 327 326 324 324
319 319 319 318 317 317 317 317 316 316 316 316 316 316 316 316 316 316 315 314 314 313 312 312 311 311 312 313 313 313 313 312 312 312 312 312 313 313 313 313 313 313 313 313 313 313 313 313 314 314 314 314 316 320 323 326 328 329 329 329 330 330 330 330 329 331 334 334 332 331 328 328 329 330 331 331 331 331 331 331 331 331 330 329 329 329 329 327 326 325 326 326 326 327 326 325 325
318 318 318 318 317 317 317 317 316 316 316 316 316 315 316 316 316 316 314 314 313 313 311 311 311 311 312 313 313 312 312 312 312 312 312 312 312 313 313 312 312 312 312 312 312 313 313 314 314 314 315 317 322 325 327 328 328 329 329 329 329 330 330 330 328 330 332 330 329 329 328 327 327 328 329 330 331 331 332 332 331 331 330 329 329 329 328 327 326 327 327 326 326 326 325 324 325
317 317 317 317 318 318 318 317 317 317 316 316 315 316 316 315 315 315 314 313 313 311 311 311 311 311 312 312 312 312 312 311 311 312 312 312 313 313 313 312 312 312 312 312 312 313 313 314 315 315 317 320 323 325 327 327 328 329 329 328 329 329 328 329 328 328 329 329 329 329 328 328 327 327 327 328 329 330 330 331 331 331 330 329 328 328 328 327 327 326 326 325 323 323 322 322 324
317 317 317 317 318 318 318 317 318 317 316 316 315 316 316 314 315 315 313 313 312 311 310 310 310 310 311 311 311 311 311 311 311 312 312 312 312 312 312 312 312 312 312 313 313 314 315 315 315 316 318 321 323 326 327 327 328 329 329 328 329 329 328 328 328 328 329 329 329 329 329 330 328 327 327 328 328 327 327 328 329 330 330 328 327 327 327 326 326 325 325 324 323 322 321 322 324
317 316 317 318 318 318 318 318 317 317 316 316 315 316 316 314 314 314 313 312 311 311 311 310 310 310 311 311 311 311 310 311 311 311 311 311 311 311 311 311 312 312 313 314 314 315 316 317 317 317 319 321 324 325 326 327 328 328 328 327 328 328 328 328 328 327 328 329 328 328 328 328 328 327 327 327 328 328 327 327 328 328 328 327 327 327 326 326 326 326 326 325 325 323 322 323 324
317 317 317 318 320 320 319 318 317 316 315 315 315 318 319 316 314 313 312 311 311 311 311 310 310 310 310 310 310 310 310 310 310 310 310 310 310 310 311 311 312 313 314 315 315 316 317 319 321 321 321 322 325 325 324 327 327 325 326 327 327 327 326 327 327 327 327 327 325 324 325 325 326 326 326 327 328 328 328 327 327 327 327 326 326 326 326 326 325 325 325 325 324 324 323 324 325
317 318 319 319 320 320 319 317 316 315 315 314 315 318 320 317 313 311 312 311 311 312 312 311 311 310 309 309 309 309 309 309 309 310 310 310 310 311 311 312 313 314 315 315 316 317 318 321 323 324 322 322 325 326 325 327 326 325 326 326 326 327 326 326 326 325 324 324 323 322 323 323 324 325 325 326 326 327 327 327 327 326 326 325 325 324 324 324 323 323 323 323 323 323 324 324 324
317 319 321 321 321 320 318 317 316 316 315 314 315 318 319 316 312 311 311 311 312 312 313 312 311 310 309 309 308 309 309 308 309 309 309 310 310 311 311 311 314 315 316 317 317 318 318 321 323 324 325 322 322 325 326 326 325 325 326 325 325 325 325 324 323 323 322 322 322 322 323 323 323 324 324 324 324 324 325 325 325 325 324 324 323 323 323 323 323 323 323 323 322 323 323 323 323
320 320 322 323 322 321 319 317 317 316 315 314 316 318 319 316 313 312 311 311 312 313 313 313 311 310 309 309 308 308 308 308 308 308 309 309 310 311 310 312 315 316 316 317 318 318 318 320 321 322 324 322 321 323 324 324 323 324 324 322 322 322 322 322 321 321 321 322 322 322 322 323 323 323 323 323 323 323 324 324 324 324 323 323 323 323 323 323 322 322 322 321 321 321 321 321 321
322 321 322 322 322 321 319 318 317 317 315 315 315 316 317 317 314 312 311 311 312 312 313 313 311 310 309 308 308 308 308 308 308 308 308 309 310 311 310 312 314 316 317 319 318 319 319 319 320 319 320 321 320 321 321 321 321 321 321 320 320 320 320 321 321 321 321 321 321 321 321 321 322 321 321 321 321 321 322 322 322 322 322 321 321 321 321 321 321 320 320 319 319 319 319 319 319
323 323 322 322 323 322 321 319 318 317 316 316 317 316 317 317 314 312 312 312 312 312 313 313 311 310 309 308 308 308 308 308 308 308 308 309 310 310 310 312 314 316 318 319 319 319 320 320 320 319 319 320 320 320 320 320 320 319 319 318 318 319 320 320 320 319 319 319 320 320 320 320 319 319 318 319 319 319 320 320 320 320 319 319 319 319 319 318 318 317 317 316 315 314 313 313 313
322 322 322 322 322 321 321 320 317 317 317 317 318 318 319 319 315 312 312 312 312 313 313 313 311 310 309 309 308 308 308 308 308 308 308 308 309 310 310 312 314 316 317 317 317 318 319 319 318 318 318 318 318 318 318 318 318 318 317 317 317 318 319 319 318 318 319 319 318 318 318 318 317 316 316 316 317 317 317 316 316 315 314 313 313 313 313 312 312 311 310 310 309 307 306 306 306
320 321 322 322 321 321 321 319 316 316 318 319 320 320 320 320 318 314 312 312 312 313 313 312 311 310 309 309 308 308 307 307 308 307 308 308 309 310 311 312 314 316 316 316 317 317 317 317 317 317 317 316 316 316 316 316 316 316 317 318 318 318 318 317 317 317 317 316 316 315 313 313 312 311 311 311 311 311 310 309 308 307 307 306 306 306 305 304 304 304 303 303 303 302 302 302 301
320 321 321 322 322 322 321 319 316 316 319 320 320 321 320 320 321 316 311 312 311 312 313 311 311 310 309 309 308 308 307 307 307 307 307 308 309 310 311 313 313 315 316 316 317 317 316 316 316 315 315 315 314 315 315 314 315 315 316 317 316 316 316 315 313 312 311 310 309 308 307 306 306 305 305 305 305 304 304 303 303 302 302 301 301 300 300 300 300 299 299 299 299 298 298 298 298
321 321 321 322 322 322 321 318 316 316 318 320 320 320 320 319 321 317 312 311 312 312 313 312 311 310 309 309 308 308 307 307 306 307 308 308 309 310 311 313 313 314 315 315 316 316 315 316 315 315 314 314 314 314 314 313 314 314 314 314 313 312 310 309 308 307 306 305 305 304 303 303 302 302 301 301 301 301 300 300 299 299 299 298 298 298 298 298 297 297 297 297 296 296 296 296 296
322 321 322 322 322 323 323 318 316 316 316 319 319 319 319 318 320 319 313 312 313 312 312 312 311 310 309 309 308 307 307 306 306 307 308 308 309 310 312 313 313 314 315 314 315 315 315 315 315 315 315 315 314 313 312 311 311 311 310 310 309 307 306 306 305 304 304 303 302 301 301 300 300 299 299 299 299 298 298 298 298 298 297 297 297 297 297 297 297 296 296 296 296 296 296 295 295
322 323 322 323 322 323 323 321 318 317 317 318 318 320 321 319 320 319 315 312 311 311 311 311 310 309 309 308 308 307 306 306 306 307 307 308 309 311 313 314 314 315 314 314 315 315 314 314 314 315 315 314 313 311 309 308 308 307 307 307 306 306 305 304 304 303 301 301 300 300 299 298 298 298 298 298 298 298 298 297 297 297 297 297 297 297 297 296 296 296 295 295 295 295 294 294 294
322 324 323 321 322 322 324 325 322 323 323 319 318 324 327 323 322 320 315 312 311 309 308 309 309 309 308 308 307 306 306 305 305 306 307 308 309 311 314 314 314 315 315 314 314 313 313 313 313 313 313 312 310 309 307 306 306 306 306 305 305 305 304 303 302 301 300 300 300 299 298 298 298 298 298 297 297 297 297 297 297 297 296 296 296 296 296 295 295 295 294 294 294 294 293 293 293
322 326 326 322 321 323 324 324 324 326 326 321 319 326 327 323 322 321 315 312 312 310 308 308 308 308 307 307 306 306 306 305 305 306 306 307 309 311 313 314 314 315 314 314 313 312 312 312 311 310 309 308 307 307 306 305 305 304 304 304 304 304 303 302 301 300 300 299 299 298 298 298 297 297 297 297 297 296 296 296 296 296 295 295 295 295 295 294 294 294 293 293 293 293 292 292 292
324 326 327 324 321 323 324 323 325 326 324 322 320 323 324 322 323 321 315 312 313 310 308 308 307 307 307 306 306 306 305 304 304 305 306 307 309 311 313 313 314 314 313 312 311 310 310 308 308 307 306 305 305 305 304 304 303 303 303 303 302 302 302 301 300 299 299 298 298 298 297 297 297 296 296 296 296 296 295 295 295 295 295 294 294 294 293 293 293 292 292 292 292 292 291 291 291
324 324 323 324 323 323 323 324 325 325 324 324 322 321 324 324 322 319 315 315 316 312 310 308 308 307 306 306 306 305 305 304 304 305 306 307 309 311 312 312 313 313 311 310 309 307 306 306 305 304 304 304 303 303 303 302 302 302 302 301 301 301 300 300 299 299 298 298 298 297 297 296 296 296 296 295 295 295 295 294 294 294 293 293 293 293 292 292 292 291 291 291 291 290 290 290 290
321 322 322 323 322 322 322 323 324 323 323 324 323 322 324 326 323 319 317 318 318 315 312 309 308 307 306 306 306 305 304 304 304 305 306 307 308 310 310 311 311 310 308 307 306 305 304 304 304 303 303 303 302 302 302 301 301 301 300 300 300 300 300 299 299 298 298 297 297 296 296 296 295 295 295 295 295 294 294 294 293 293 293 292 292 292 291 291 291 290 290 290 289 289 289 289 289
318 321 323 321 321 320 320 321 321 322 323 323 323 322 322 325 326 321 319 319 318 317 314 310 307 307 306 306 305 304 304 303 304 305 306 307 308 308 309 309 308 307 306 305 304 304 303 303 303 303 302 302 301 301 301 301 300 300 300 299 299 299 299 299 298 298 297 296 296 296 295 295 295 295 295 294 294 294 293 293 293 292 292 292 292 291 291 290 290 290 289 289 289 289 288 288 288
319 322 323 322 321 320 320 320 320 322 324 323 322 322 322 324 325 320 319 319 317 318 315 310 308 307 306 306 305 304 304 303 304 305 306 307 307 307 307 307 306 305 304 304 303 303 303 302 302 302 302 301 301 300 300 300 299 299 299 299 299 299 298 298 297 297 296 296 296 295 295 295 295 295 294 294 294 293 293 293 292 292 292 291 291 291 290 290 290 289 289 289 289 289 288 288 288
320 322 323 324 324 322 323 323 321 322 323 319 319 321 323 322 322 319 319 318 317 317 314 310 308 307 306 306 305 304 303 303 304 305 306 306 306 306 305 305 304 304 303 303 303 302 302 302 301 301 301 301 300 300 299 299 299 299 298 298 298 298 298 297 297 296 296 295 295 295 295 295 295 295 294 294 293 293 293 292 292 291 291 291 290 290 290 289 289 289 289 289 288 288 288 288 288
320 321 323 326 326 325 327 325 324 325 323 317 315 320 324 324 322 320 319 317 314 313 312 310 308 307 306 306 305 304 303 303 304 305 305 305 305 305 304 303 303 303 303 302 302 302 301 301 301 300 300 300 299 299 298 298 298 298 298 298 298 298 297 297 296 296 295 295 295 295 295 295 294 294 294 293 293 292 292 292 291 291 290 290 289 289 289 289 289 288 288 288 288 288 288 287 287
318 320 321 324 326 328 329 327 327 327 322 317 316 321 326 325 322 318 314 311 310 311 312 310 309 307 307 306 304 304 303 303 304 304 305 305 304 304 303 303 303 302 302 302 301 301 301 301 300 300 300 299 299 298 298 298 298 298 298 298 297 297 297 296 296 295 295 295 295 295 295 294 294 294 293 293 292 292 292 291 290 290 289 289 289 288 288 288 288 288 288 287 287 287 287 287 287
318 319 321 323 324 325 326 324 322 321 321 319 319 323 324 320 318 313 309 309 309 310 311 310 308 307 306 305 304 303 303 303 303 304 304 304 303 303 303 302 302 302 302 301 301 301 301 300 300 299 299 299 298 298 298 298 298 298 298 298 297 297 296 296 296 296 295 295 295 295 294 294 294 293 293 292 292 291 290 290 289 289 289 288 288 288 288 287 287 287 287 287 287 287 287 287 287
320 320 321 322 322 322 324 323 319 318 322 322 320 321 320 317 317 312 310 312 310 309 309 308 307 307 306 305 304 303 303 303 303 304 303 303 303 302 302 302 302 302 302 301 301 301 300 300 299 299 299 298 298 298 298 298 298 298 297 297 297 296 296 296 296 296 295 295 294 294 294 294 293 293 292 292 291 290 290 289 289 289 289 288 288 288 287 287 287 287 287 287 287 287 287 287 287
321 322 321 320 322 321 321 323 322 322 324 323 321 322 320 320 320 314 311 313 312 310 310 308 307 307 305 304 304 303 303 303 303 303 303 303 303 302 302 302 302 302 301 301 301 300 300 299 299 299 298 298 298 297 297 297 297 297 297 297 296 296 295 296 295 295 295 294 294 294 294 293 293 292 292 291 290 290 290 290 289 289 289 288 288 287 287 287 287 287 287 287 287 287 287 286 286
317 319 318 320 324 323 321 322 324 325 324 324 323 323 321 321 321 317 314 315 313 310 310 309 307 306 305 304 304 303 303 302 302 303 303 302 303 303 302 302 302 302 301 301 301 300 299 299 299 298 298 298 297 297 297 297 297 297 296 296 295 295 295 295 295 294 294 294 294 293 293 293 292 292 291 291 291 290 290 290 289 289 288 288 288 287 287 287 287 287 287 287 287 286 286 286 286
314 314 317 320 322 322 323 321 322 325 324 324 325 325 324 321 320 320 318 315 312 309 309 309 307 306 306 305 304 303 303 303 303 303 302 302 303 303 302 302 302 302 301 301 300 300 299 299 298 298 297 297 297 297 297 297 296 296 296 295 295 295 295 295 294 294 294 293 293 293 293 292 292 292 291 291 291 291 290 290 289 289 288 288 288 287 287 287 287 287 287 287 286 286 286 286 286
315 316 319 320 318 319 322 321 321 323 323 324 324 324 325 321 317 319 318 314 312 310 309 309 307 307 306 305 304 304 303 303 303 303 303 302 302 302 302 302 302 301 301 301 300 300 299 299 298 298 297 297 296 296 296 296 296 295 295 295 295 295 294 294 294 293 293 293 293 293 292 292 292 291 291 291 291 290 290 289 289 288 288 288 288 288 287 287 287 287 287 287 286 286 286 286 285
317 316 317 318 318 319 321 322 321 320 321 323 323 324 326 320 315 317 319 316 313 310 308 308 307 307 307 306 305 305 304 303 303 303 303 303 302 302 302 302 301 301 301 300 300 299 299 299 298 297 297 296 296 296 296 296 295 295 294 294 294 294 293 293 293 293 292 292 292 292 292 291 291 291 291 291 290 290 290 289 289 288 288 288 288 288 288 288 287 287 287 287 286 286 286 285 285
Wind_Speed
3 5 6 4 4 2 2 2 2 3 2 3 4 3 2 2 1 2 5 5 5 7 8 7 6 6 4 2 8 16 17 12 8 5 4 2 3 3 3 3 4 5 6 2 6 13 11 10 8 8 8 7 7 5 5 4 4 4 3 3 2 2 4 5 5 4 6 7 7 8 8 9 10 10 10 10 10 9 9 10 10 10 10 9 9 9 8 8 7 7 6 6 7 7 7 7 6
5 6 7 6 3 2 2 1 1 2 3 4 4 3 1 1 2 5 8 6 6 6 6 6 5 5 4 3 6 14 16 17 17 13 10 4 4 4 4 4 4 7 8 3 3 11 12 10 8 7 8 7 7 6 5 4 3 3 2 2 2 2 3 4 4 4 4 6 6 6 7 8 9 9 9 9 9 9 9 9 9 9 9 7 7 8 8 8 7 6 6 7 7 8 8 8 7
6 6 7 6 2 4 3 1 1 2 4 4 3 2 1 2 5 7 8 9 9 6 3 4 5 6 4 2 5 10 10 14 16 14 11 4 1 5 5 5 4 7 8 3 2 9 11 9 8 7 8 7 7 6 5 4 3 1 1 2 2 3 4 4 3 3 5 5 5 5 6 7 8 8 8 8 9 9 8 8 8 8 7 6 6 6 7 7 6 6 6 8 9 10 10 10 9
6 6 6 5 3 3 3 2 2 2 3 4 3 3 3 6 6 7 10 9 8 5 3 2 4 6 7 5 7 11 9 10 11 9 9 5 4 5 5 5 5 6 9 5 2 7 11 8 8 7 8 8 7 6 4 4 2 1 1 2 2 3 5 4 3 4 6 6 5 4 4 6 7 6 7 8 9 8 7 8 7 6 5 5 4 5 6 6 5 6 7 10 12 13 13 13 12
6 6 5 4 2 2 1 2 1 3 3 1 3 3 5 6 6 8 9 8 7 5 4 3 2 5 8 11 8 6 6 5 6 7 7 6 6 5 5 5 5 6 10 10 2 4 8 8 8 8 8 8 8 7 5 4 2 0 1 2 2 2 4 5 5 5 6 6 4 3 4 5 6 6 6 7 9 8 7 7 7 5 4 3 3 4 5 5 6 8 10 12 14 14 14 13 13
6 5 4 3 3 3 2 2 2 5 3 2 5 4 6 7 7 9 9 9 8 6 4 5 4 8 9 11 12 9 7 3 3 6 7 7 6 5 6 6 6 6 10 11 6 5 4 7 8 9 9 8 8 7 6 4 3 2 0 1 2 2 4 5 6 5 6 5 4 4 5 5 5 5 6 7 8 9 7 6 6 4 3 2 2 3 4 5 7 9 12 13 15 15 14 13 12
5 4 2 3 3 2 2 1 4 5 4 5 6 5 6 7 5 8 9 6 6 6 6 5 4 7 7 7 11 12 9 6 5 8 7 6 7 5 5 7 7 8 10 10 9 7 5 6 7 10 10 8 8 7 6 5 4 3 1 1 1 2 3 4 6 6 5 5 4 4 5 5 5 4 5 6 7 8 8 7 6 4 3 1 2 3 4 4 8 11 13 15 17 17 16 14 12
5 4 1 2 1 1 2 2 6 4 2 6 7 7 8 7 2 2 6 4 4 6 6 5 3 2 5 9 9 7 7 9 9 9 7 6 6 5 4 5 6 8 11 11 10 8 7 8 7 10 11 9 9 7 7 6 6 4 2 1 1 0 1 3 4 5 5 4 4 3 3 4 5 4 4 5 6 7 8 7 6 5 4 3 3 4 5 6 10 12 14 16 18 19 17 14 11
5 5 2 2 1 1 1 3 5 3 4 5 7 8 8 6 2 3 5 5 4 7 7 5 5 2 9 16 12 5 5 8 8 7 5 5 5 5 4 3 5 6 11 11 10 9 9 9 8 11 13 10 10 8 8 7 6 5 4 3 1 1 1 1 2 3 4 3 3 2 2 3 4 4 3 4 5 6 7 6 5 5 4 4 4 6 8 10 12 14 15 18 19 19 18 15 11
4 4 2 2 1 1 1 4 4 4 5 6 7 8 8 5 2 4 3 5 3 5 6 3 4 3 10 16 10 5 5 5 5 4 3 3 2 3 3 4 4 4 8 10 8 8 9 9 9 12 13 12 11 10 9 8 7 7 6 4 3 2 2 1 1 1 2 2 1 1 1 2 2 2 2 2 3 5 5 4 4 3 4 4 6 8 10 12 13 15 17 19 19 20 19 16 12
2 3 1 2 2 2 3 4 5 4 5 6 8 8 7 4 2 1 2 6 3 4 7 3 3 4 4 12 9 6 5 3 2 2 1 0 1 2 3 4 4 4 6 8 7 5 7 9 10 12 14 13 12 11 10 9 8 8 7 6 5 4 4 3 2 2 1 0 0 0 0 1 1 1 1 1 2 3 4 3 2 2 3 5 7 8 10 12 13 15 17 18 20 20 20 17 14
2 2 1 2 4 1 1 4 5 5 5 4 6 7 7 4 2 0 2 5 3 6 10 5 2 4 1 8 9 9 6 3 1 2 2 2 2 3 3 3 4 4 5 7 7 6 6 8 9 10 12 14 14 13 11 11 10 9 8 7 7 6 5 4 3 2 2 2 2 1 2 2 1 1 1 2 2 2 3 2 2 2 3 5 7 8 10 12 13 15 17 18 19 19 19 17 14
3 3 1 2 3 2 3 3 6 5 4 3 6 7 6 4 1 5 4 1 2 5 7 5 2 3 1 9 11 9 7 1 2 3 4 4 4 3 4 4 5 5 6 7 7 6 7 8 9 10 12 13 14 14 13 12 11 10 9 8 8 8 7 6 5 4 3 3 2 2 3 4 3 2 3 3 3 2 2 3 3 3 4 5 8 9 10 12 14 16 17 18 18 18 17 16 13
3 5 2 2 2 2 2 3 5 4 3 4 9 9 5 2 3 5 4 2 6 6 4 2 0 3 1 9 9 6 3 1 5 6 6 5 5 4 4 4 5 6 6 6 6 6 7 7 8 10 12 13 15 15 15 15 13 11 10 9 9 9 8 7 7 7 5 5 4 3 4 6 5 4 4 5 5 4 4 5 5 5 6 6 7 9 10 12 14 16 17 17 17 16 16 15 13
3 4 2 2 1 1 1 2 4 4 3 5 8 10 6 3 3 3 3 4 7 4 4 2 2 1 2 3 5 2 1 4 7 7 6 5 4 4 4 4 4 6 7 7 7 7 7 8 8 8 10 13 15 16 16 16 15 13 13 12 11 10 9 8 8 8 7 6 5 4 5 6 6 5 5 6 6 5 5 5 5 6 7 7 8 9 10 11 13 15 16 16 16 15 15 15 13
2 2 1 1 1 1 1 1 3 3 3 6 7 9 8 4 2 1 1 1 1 1 3 2 3 2 2 1 2 2 5 5 6 5 4 2 2 3 3 3 4 6 7 8 9 8 8 8 8 8 8 10 12 14 15 16 16 16 16 15 14 12 11 10 9 8 7 7 5 4 5 6 6 6 6 7 7 7 6 5 5 5 6 8 9 9 10 11 13 14 14 15 15 13 12 13 13
2 2 1 3 3 2 2 1 3 3 4 6 8 7 5 5 4 1 0 2 2 3 6 4 3 3 3 1 2 4 5 5 3 2 3 3 3 3 3 3 5 6 7 8 9 10 10 9 8 8 8 8 10 12 12 13 16 17 17 16 15 14 13 12 10 9 8 7 6 5 5 6 7 7 6 6 7 7 7 7 6 6 7 9 10 10 10 12 13 13 13 13 14 13 11 10 12
2 0 2 3 1 2 1 2 4 5 6 6 7 3 1 4 6 3 1 3 4 4 7 4 3 2 3 1 2 4 3 3 1 2 4 6 8 5 5 4 6 7 7 8 10 11 12 11 10 9 9 9 9 10 10 11 13 16 16 16 16 15 14 13 12 10 9 8 7 5 5 6 6 7 6 6 6 7 7 7 7 8 8 9 11 11 11 12 12 11 12 12 14 14 12 10 11
2 1 2 2 2 3 4 7 7 3 6 7 7 3 1 2 4 3 1 4 7 5 7 6 4 4 2 1 2 3 2 0 3 3 4 5 8 8 7 6 8 9 9 10 10 11 12 13 13 12 11 10 9 9 10 10 10 13 14 14 15 15 15 14 12 11 10 9 8 6 6 6 6 6 7 6 6 6 7 8 9 9 9 10 11 11 11 10 10 9 11 13 15 14 14 14 14
0 1 2 2 3 5 7 10 9 8 7 6 6 4 1 0 2 2 2 4 4 3 6 7 9 6 3 2 3 2 1 2 4 4 4 3 3 5 6 7 9 9 11 12 11 12 13 13 14 14 13 11 10 10 10 9 7 9 11 12 12 13 13 12 12 11 11 9 8 7 6 6 7 7 7 7 7 7 8 9 9 9 10 11 11 10 10 9 8 9 11 13 15 14 14 16 16
2 2 1 3 2 3 7 10 9 7 7 5 4 2 2 1 2 1 2 4 1 5 6 8 10 7 4 3 3 3 2 3 4 3 3 2 1 2 4 5 7 8 10 12 12 13 13 13 13 14 14 12 11 11 10 8 6 6 8 9 9 10 10 10 11 11 11 10 9 8 7 8 9 8 6 5 6 7 7 8 8 9 9 9 9 9 8 8 8 8 10 12 13 13 13 15 16
3 2 4 5 4 2 7 8 6 4 4 3 2 1 2 1 1 3 3 3 2 4 4 5 7 7 5 4 4 4 3 2 2 2 2 2 2 3 4 5 6 7 8 9 10 11 11 11 11 12 12 12 12 11 10 8 7 5 6 8 10 9 9 11 12 13 12 11 10 10 9 9 9 8 7 6 5 4 5 5 7 8 8 7 7 7 8 8 8 8 8 9 9 11 13 14 15
2 1 5 5 3 3 5 4 3 3 2 0 1 1 2 3 5 6 4 2 4 6 4 4 6 6 5 5 6 4 3 2 2 3 3 3 3 4 4 5 6 6 8 9 9 9 9 9 9 10 9 10 11 12 12 9 8 7 7 10 13 12 10 11 11 12 13 12 11 10 9 9 9 8 8 8 6 6 6 5 5 6 7 6 6 6 7 6 6 7 6 6 8 10 12 12 13
2 1 4 5 2 2 4 3 2 2 1 2 2 3 4 5 5 4 4 5 7 7 5 6 6 5 6 7 5 3 3 3 4 4 5 5 5 6 6 6 6 7 8 8 9 9 8 8 8 8 5 6 8 10 9 9 10 10 10 11 13 14 12 11 9 9 11 10 10 9 8 9 10 9 9 9 8 8 8 7 6 7 7 6 6 6 6 5 4 5 6 7 9 10 12 12 13
2 1 3 3 1 1 3 3 3 4 4 4 5 5 7 9 6 3 6 8 9 7 5 5 6 6 7 6 4 3 3 4 5 5 6 6 7 7 7 7 7 7 7 7 8 8 8 7 7 8 7 8 7 6 8 12 13 12 12 12 13 14 13 12 10 10 10 8 7 7 7 9 11 10 10 10 9 9 10 11 11 10 8 7 8 7 6 6 6 6 7 9 10 11 13 14 14
2 3 2 1 2 4 5 6 7 7 7 6 5 7 10 10 7 3 7 11 10 7 6 6 6 6 5 4 3 4 5 5 6 6 6 7 8 8 8 8 8 7 6 6 6 6 7 7 7 8 9 11 11 12 14 15 15 13 13 14 15 14 13 13 12 12 12 10 7 5 5 7 10 11 12 11 10 10 10 11 12 10 9 8 8 8 7 6 6 7 8 10 11 12 15 14 13
3 4 5 6 8 7 7 8 9 8 8 9 7 7 9 7 6 2 7 13 10 8 8 7 6 5 4 3 4 5 6 6 6 7 8 8 9 9 9 9 9 6 5 5 4 5 6 6 7 8 11 14 14 16 17 16 15 14 13 14 15 13 12 13 11 10 10 8 7 7 8 9 9 11 12 12 11 11 10 8 8 6 7 7 6 7 7 6 7 8 9 11 12 14 16 15 11
3 4 6 10 12 11 10 10 10 8 5 10 10 7 4 5 3 5 11 13 10 10 9 8 7 5 5 5 5 6 7 7 7 8 8 9 9 9 9 9 8 6 4 4 3 4 4 5 7 10 12 13 13 15 16 14 15 14 14 15 14 12 11 12 11 9 7 7 8 9 10 10 8 9 10 10 10 11 10 8 7 5 5 5 5 5 6 6 6 6 8 9 11 13 14 12 10
3 3 5 7 8 9 13 13 11 9 4 8 9 4 5 6 4 7 13 13 11 11 9 8 7 6 6 6 6 7 7 8 8 8 8 8 8 8 8 8 7 6 4 2 3 4 5 6 7 9 11 10 11 15 16 15 15 15 14 14 13 11 10 10 9 8 7 8 8 7 7 7 7 7 7 6 6 7 7 6 5 4 5 4 4 5 6 6 5 6 8 8 10 11 10 10 10
3 4 3 4 5 5 12 13 10 8 4 8 9 1 6 8 7 11 13 14 15 12 10 9 7 6 6 6 6 7 7 8 8 7 7 7 7 6 6 6 5 4 3 3 4 5 7 9 8 7 8 10 11 12 13 15 15 14 13 12 11 9 8 7 6 5 5 6 4 3 3 2 3 4 5 5 6 6 4 4 4 5 7 7 6 6 5 5 6 8 9 9 10 10 10 10 10
3 3 2 2 3 3 5 10 11 7 4 10 8 2 5 3 9 12 12 14 15 12 11 10 8 7 7 6 6 7 6 7 7 7 7 7 6 5 5 4 4 4 4 5 7 7 9 12 12 9 7 10 12 11 12 14 12 12 12 11 10 9 8 7 5 3 3 3 2 2 3 3 3 2 2 3 4 4 3 4 5 6 8 8 7 6 6 7 8 8 9 9 10 10 9 10 10
2 2 3 2 3 2 2 8 11 5 3 10 7 2 3 3 9 12 13 15 14 12 12 12 10 9 8 7 6 6 7 6 7 7 7 7 6 5 4 4 5 5 6 7 9 9 10 13 14 13 10 9 12 13 13 13 11 11 10 9 9 8 7 6 5 5 4 3 3 3 4 3 4 4 4 3 1 1 1 2 3 4 6 6 6 6 6 7 8 8 8 9 9 9 9 10 11
3 4 4 3 4 4 2 5 9 6 5 9 7 3 2 3 10 13 14 16 14 12 13 13 11 10 9 8 8 8 7 6 7 8 8 7 6 6 4 5 6 7 8 9 10 10 11 12 12 14 12 9 11 13 12 11 11 11 10 9 9 8 7 7 6 6 5 5 4 5 5 4 3 3 4 4 3 2 2 1 1 2 2 3 4 4 5 5 6 6 7 7 8 8 9 10 10
3 4 4 5 5 5 2 1 5 7 5 6 7 6 6 3 11 15 16 18 16 15 14 14 13 11 10 10 9 8 6 6 9 10 9 8 8 7 5 7 8 9 10 11 12 12 13 13 12 12 13 12 11 11 10 10 10 10 10 10 10 10 10 9 8 7 6 6 6 6 5 4 3 2 2 2 2 2 2 2 0 0 1 1 2 3 3 3 4 4 5 6 6 8 9 10 11
4 3 3 4 4 5 4 1 4 8 4 5 6 7 8 5 10 15 18 19 18 17 15 15 14 12 12 11 10 9 8 9 12 11 9 10 9 8 7 8 9 12 13 13 13 14 16 17 15 13 13 13 13 12 12 12 12 11 11 11 11 12 12 10 9 8 7 7 7 6 5 4 3 2 2 2 2 2 2 2 1 1 2 2 3 3 3 4 4 5 6 7 7 9 10 11 12
5 3 1 3 3 4 3 1 5 6 3 6 7 7 8 6 7 12 17 19 18 17 15 15 14 14 13 11 11 11 11 13 14 11 9 10 10 8 9 10 11 13 13 12 13 15 16 17 17 17 16 14 13 13 12 12 12 11 12 12 13 14 13 11 10 9 8 8 8 7 5 5 4 3 3 2 2 1 2 1 1 0 1 2 3 3 3 4 5 5 6 7 7 7 8 9 11
5 2 3 5 4 5 4 1 4 2 1 5 6 6 9 7 5 11 18 18 15 15 15 16 16 15 15 13 13 12 13 15 14 10 10 11 10 9 10 12 13 14 14 13 13 14 15 15 16 17 16 15 13 13 13 13 12 12 13 13 14 14 12 10 10 8 8 8 8 7 6 7 6 6 6 5 5 5 5 6 5 5 6 6 6 7 8 8 8 8 8 7 8 8 9 11 11
6 2 4 5 3 6 5 1 4 3 1 4 6 7 9 9 7 10 18 14 14 19 18 18 19 17 16 15 15 14 15 16 13 11 12 12 12 12 13 14 15 16 15 15 14 14 14 14 14 13 14 15 14 14 13 13 13 12 12 12 12 13 11 10 10 10 10 10 10 11 11 12 11 12 12 11 11 11 11 11 11 11 11 11 11 11 11 11 11 11 11 11 11 12 14 15 15
5 3 3 4 4 5 3 2 3 2 1 3 5 7 8 9 8 7 18 17 17 23 21 20 21 19 18 17 17 17 17 15 13 13 14 14 15 15 16 15 16 18 18 17 16 16 15 15 14 13 14 14 14 13 12 13 14 13 12 13 13 13 14 13 13 15 14 14 14 14 15 14 14 14 14 13 13 13 12 12 13 12 12 12 11 11 11 11 12 12 13 13 14 15 16 17 19
3 3 3 4 4 4 3 1 2 2 2 4 5 7 8 8 9 8 16 17 12 15 16 15 17 19 18 17 17 18 17 15 15 15 15 16 17 18 18 18 18 21 21 19 19 18 17 17 16 15 14 13 13 13 13 14 16 15 15 16 15 16 17 16 16 16 15 15 15 15 15 14 14 14 14 13 13 13 12 12 12 12 12 12 12 12 12 13 14 14 15 15 15 16 17 18 19
5 6 5 5 4 6 6 3 3 3 4 5 3 7 7 8 12 9 7 8 6 9 11 10 13 14 14 15 15 15 15 15 16 17 18 19 20 20 21 20 21 22 22 21 20 19 19 18 17 16 14 14 14 14 15 16 17 17 18 18 17 17 17 16 15 16 15 14 14 14 14 13 12 12 12 12 12 12 12 12 12 12 12 13 13 13 14 14 15 15 16 17 17 18 18 18 18
4 6 8 9 8 6 5 3 2 2 3 3 2 3 5 4 9 7 5 4 4 8 10 11 13 13 14 16 15 14 14 15 17 18 19 21 22 23 23 23 23 23 23 22 21 20 20 19 18 17 17 17 17 16 16 17 17 17 17 17 16 15 16 16 14 14 14 12 12 12 12 11 11 11 11 11 11 11 11 11 12 12 12 13 14 14 14 14 15 16 17 17 17 18 17 17 18
4 4 4 7 7 4 3 5 3 1 3 1 3 2 5 5 4 4 6 6 6 8 9 13 16 16 17 18 18 17 17 17 18 19 21 23 24 25 26 25 25 25 24 23 22 21 20 20 19 19 19 20 20 19 18 17 17 17 15 14 14 12 13 14 14 12 12 11 11 10 10 9 9 9 9 10 10 11 11 11 12 13 13 14 14 15 15 16 17 17 17 17 17 17 18 18 18
3 3 3 2 2 1 1 2 3 3 3 2 4 3 5 8 5 6 8 7 7 8 9 11 18 21 20 20 21 22 21 21 22 23 23 24 26 27 28 28 27 26 25 24 22 22 21 21 20 20 20 20 19 19 18 17 15 15 14 12 13 12 10 12 12 11 10 10 9 8 8 8 8 8 9 10 10 11 12 13 13 14 14 15 16 16 17 17 17 17 17 18 18 18 18 18 18
2 1 3 5 4 1 1 2 3 3 4 3 5 5 4 8 3 6 8 7 8 11 11 11 17 23 23 23 24 25 25 24 24 25 25 26 28 29 29 29 29 27 26 25 24 24 23 23 22 21 20 19 19 18 17 16 14 13 13 11 11 12 10 10 11 9 9 9 7 7 7 7 8 8 9 10 11 12 13 14 14 15 16 16 17 17 18 18 18 18 18 19 19 19 19 18 18
4 3 5 5 3 2 1 1 1 2 5 6 6 6 4 7 2 5 4 4 8 11 9 11 18 24 25 25 26 26 27 26 25 26 28 29 30 30 30 30 29 29 28 27 27 26 25 24 23 22 21 20 19 18 17 17 15 13 12 10 10 11 11 10 10 10 9 8 7 7 7 7 8 8 9 11 12 13 13 14 15 15 16 17 18 18 18 19 19 19 19 19 19 19 19 19 18
8 5 5 4 1 2 1 1 1 1 7 7 9 10 6 5 3 7 5 5 8 8 6 9 16 22 25 26 27 28 28 28 28 29 31 32 32 31 31 31 31 30 30 29 28 27 26 25 24 23 22 21 20 19 17 16 15 13 12 11 10 11 11 10 10 10 9 8 7 7 7 7 7 8 10 11 12 13 14 15 15 16 17 18 18 19 20 20 20 20 20 19 19 19 19 18 18
6 4 4 3 1 3 2 1 2 2 7 4 9 13 11 7 5 4 5 4 7 8 8 10 14 21 25 26 28 29 30 30 31 32 33 34 33 33 32 32 32 32 31 30 29 28 26 25 24 23 22 21 20 19 17 16 15 14 13 12 11 11 11 10 9 9 9 7 6 6 6 6 7 8 9 11 12 13 14 15 16 16 17 18 19 19 20 20 20 19 19 19 19 19 19 19 18
3 4 5 4 1 0 0 2 3 5 7 3 3 7 8 9 7 6 6 3 3 5 12 17 19 24 27 28 29 30 31 32 33 35 36 36 35 35 35 34 34 33 32 31 29 28 26 25 24 22 22 21 20 19 18 16 16 15 14 13 11 11 10 10 9 9 8 7 6 5 4 4 6 7 9 10 12 12 13 14 15 15 16 17 17 18 18 18 18 17 17 18 18 18 18 18 18
6 6 6 5 3 2 3 4 3 5 5 3 2 1 3 4 5 10 10 3 3 4 15 24 28 30 30 30 31 30 32 34 35 37 38 38 38 37 37 36 35 34 32 31 29 28 26 25 24 22 22 21 20 20 19 17 16 15 14 12 11 11 11 10 9 8 8 6 4 3 2 3 4 6 8 10 11 11 12 12 13 14 15 16 16 16 16 16 16 16 16 16 16 16 16 16 17
8 6 5 5 4 3 3 4 3 3 2 3 2 2 3 2 2 4 2 4 6 7 14 24 26 29 30 29 30 31 33 35 36 38 39 39 39 39 38 37 36 34 33 31 30 28 27 25 24 23 22 22 21 20 19 18 17 16 15 14 12 12 11 10 9 8 6 5 3 2 1 2 4 6 8 9 9 10 10 11 13 13 14 14 15 15 15 15 15 14 15 15 15 15 15 16 16
5 4 5 6 4 3 3 2 2 1 2 2 2 3 4 3 1 1 4 6 6 5 12 22 22 26 29 29 31 32 34 37 38 40 40 40 40 40 39 38 36 35 33 32 30 28 27 26 25 23 22 22 21 20 19 18 17 16 16 15 13 12 11 10 9 7 6 5 4 3 1 1 3 5 7 8 8 9 10 11 12 13 14 14 14 14 14 14 15 15 15 15 15 15 15 16 16
3 4 6 4 2 3 3 2 2 2 4 4 4 3 4 1 1 2 5 5 3 1 7 18 22 26 29 29 32 34 36 39 40 41 42 42 42 41 40 39 37 36 34 33 31 29 28 26 26 25 23 22 22 20 20 18 18 18 17 16 14 13 12 10 8 7 7 7 6 4 2 1 3 4 5 6 7 9 10 12 13 14 15 15 15 15 15 15 16 16 16 16 16 16 17 17 18
4 4 5 3 4 1 1 2 2 2 6 4 5 6 4 3 3 2 5 4 4 5 6 12 18 24 27 28 32 35 37 39 40 42 42 43 43 42 41 40 38 37 35 33 31 29 28 26 26 25 24 23 22 21 20 19 19 18 18 17 15 13 12 10 10 9 9 8 6 4 2 0 1 3 4 6 7 9 11 12 14 15 15 15 16 16 16 17 17 17 18 18 18 17 17 17 18
4 2 3 3 1 1 3 2 3 4 6 5 3 7 6 6 5 4 7 9 9 8 8 9 15 22 25 27 30 33 35 38 40 42 43 44 45 44 43 41 39 37 35 33 32 30 29 27 26 24 23 23 23 23 22 21 20 20 19 17 16 14 13 12 11 11 9 7 5 4 3 1 1 2 4 6 7 9 11 13 14 15 15 15 16 16 17 17 18 18 18 18 17 17 17 17 17
1 2 3 1 2 3 4 3 2 3 4 5 3 4 4 6 7 10 12 13 12 12 11 10 15 23 28 29 32 35 37 41 44 45 46 46 46 45 44 42 40 38 36 34 33 31 30 28 27 26 25 25 24 23 23 22 22 21 20 18 17 16 15 14 13 11 9 7 6 5 4 3 2 3 4 5 7 9 11 13 14 15 15 15 16 16 17 18 18 18 18 18 18 17 17 18 18
4 2 4 3 2 1 1 2 3 3 3 4 4 5 5 3 3 10 15 13 12 15 14 12 17 26 30 31 35 39 41 43 45 46 47 48 47 46 44 42 40 38 36 35 34 32 31 30 29 28 28 27 26 25 24 23 23 22 20 19 18 17 16 15 13 11 9 8 7 7 6 4 3 4 4 6 8 10 12 13 14 15 15 15 16 17 18 18 19 19 19 19 19 19 19 19 19
9 8 8 8 6 4 2 4 4 4 4 3 3 6 6 3 2 2 9 9 11 16 16 14 20 27 30 32 37 40 43 44 45 47 48 48 48 47 45 43 41 39 38 37 35 34 33 31 31 30 29 28 27 26 25 24 23 22 21 20 19 18 17 16 14 12 10 9 9 8 7 6 5 4 5 6 8 10 12 13 14 14 15 15 17 18 19 20 20 20 21 20 20 20 19 20 20
Wind_Direction
89 120 120 114 125 106 42 38 317 238 161 73 85 99 66 65 116 77 72 85 81 47 37 40 22 18 41 39 75 68 49 48 55 65 117 125 66 50 74 62 11 87 165 200 154 176 173 176 179 169 168 164 163 160 155 137 125 119 114 109 93 87 53 40 42 59 83 92 98 102 106 103 99 93 83 73 68 69 66 56 51 50 45 48 48 50 56 59 58 51 46 38 35 29 22 19 18
99 116 116 118 118 29 358 140 275 242 112 79 64 79 127 136 71 53 53 59 63 55 48 44 53 44 64 129 103 76 50 56 77 91 104 94 57 60 77 55 39 99 151 173 129 177 178 176 184 177 174 176 171 172 164 154 145 118 77 88 75 73 53 40 49 63 84 97 104 107 108 105 98 91 81 70 66 69 69 60 52 50 45 44 41 42 48 48 48 46 38 30 21 11 4 359 355
97 104 117 117 52 327 297 194 233 265 110 97 79 90 250 81 68 60 60 60 62 58 64 84 85 16 342 171 95 80 59 59 75 93 101 106 59 66 84 66 68 105 145 167 44 175 177 178 188 189 181 183 183 182 175 170 163 122 27 41 43 51 49 43 59 78 86 87 90 95 102 100 94 85 76 67 62 66 69 64 56 54 51 47 37 32 36 33 37 40 27 15 4 355 347 341 337
93 99 109 81 1 291 273 217 239 317 74 103 96 84 49 71 76 74 72 68 60 34 12 80 87 18 16 38 53 73 58 51 62 83 102 102 104 89 91 77 86 109 134 144 3 169 170 180 187 197 190 187 193 195 197 195 186 112 25 26 24 37 42 43 51 74 84 87 81 75 92 97 94 84 72 64 62 65 69 65 58 59 62 54 39 24 22 18 16 14 1 353 348 345 339 334 330
101 107 95 49 353 283 301 270 287 43 34 78 107 93 80 81 88 89 85 79 62 32 19 16 72 74 50 35 40 57 20 39 50 56 94 88 96 106 108 98 93 111 132 140 201 187 169 188 188 196 195 191 197 200 209 214 219 261 23 15 22 32 38 42 43 67 88 98 97 67 72 92 94 83 71 65 63 66 68 67 56 56 77 61 38 20 13 5 353 352 344 340 343 344 340 335 331
100 105 85 7 299 300 309 282 48 83 1 358 108 92 81 80 88 101 102 97 78 61 48 14 37 91 82 60 62 54 30 65 47 51 89 90 102 117 119 112 100 117 129 135 181 215 180 197 198 196 194 195 199 200 205 214 230 246 349 353 6 21 30 41 40 64 100 107 102 73 61 76 81 76 71 63 60 65 66 66 57 57 81 52 29 18 8 357 340 342 339 340 346 347 346 342 338
78 69 64 322 288 286 278 268 69 88 352 14 98 96 84 85 101 123 119 117 107 87 66 44 36 82 110 110 72 49 53 88 81 74 88 95 101 119 131 121 117 127 126 139 187 211 200 202 207 198 193 197 200 203 206 213 227 238 251 252 343 17 20 39 40 54 99 112 102 78 61 67 70 68 64 55 52 60 60 57 53 56 69 30 359 357 359 347 332 335 339 344 350 351 350 348 347
54 14 349 305 291 206 282 37 64 75 43 40 66 75 88 93 74 117 102 84 105 93 69 65 18 25 120 119 94 50 58 79 74 73 81 100 102 118 135 123 132 140 142 163 199 211 209 202 202 194 192 196 198 205 209 214 221 226 234 224 192 104 6 30 44 47 77 103 106 90 74 67 61 51 41 44 46 52 54 51 51 54 55 37 353 334 331 326 327 334 342 347 349 351 351 351 351
4 330 308 276 267 222 308 80 83 89 106 88 78 82 92 98 31 3 98 103 86 74 56 33 353 357 108 99 100 87 67 70 65 65 72 94 106 120 131 134 142 153 161 176 199 211 215 204 196 190 189 194 198 207 212 214 217 220 223 223 220 184 251 348 36 45 54 80 107 98 79 65 57 46 22 27 37 44 50 52 58 58 45 29 349 331 328 327 331 338 344 346 347 349 351 352 351
324 287 320 314 279 220 204 112 106 101 96 97 100 106 106 108 75 9 71 107 78 74 65 15 8 60 113 102 105 110 86 65 49 54 60 81 118 132 138 150 150 158 175 187 203 209 209 203 195 190 189 191 197 207 213 213 212 216 219 218 227 223 224 246 281 54 54 57 97 97 65 53 46 40 15 20 28 30 43 60 70 57 26 2 337 334 336 335 338 344 347 348 346 348 351 353 351
299 241 328 322 270 222 199 123 110 117 112 100 96 109 114 109 128 22 85 99 83 109 78 16 25 28 105 107 113 135 115 83 32 10 21 70 183 201 176 167 168 165 183 200 217 215 201 204 200 195 193 190 195 203 208 211 211 213 214 218 226 228 226 225 238 233 208 206 177 214 44 1 6 20 341 353 20 23 33 63 87 60 12 349 341 341 341 340 344 349 351 351 347 346 349 353 353
303 249 104 270 271 304 43 112 121 117 122 139 120 122 125 131 193 187 92 104 129 119 72 22 27 356 314 115 131 162 156 123 34 329 307 264 246 231 214 202 189 179 188 199 214 218 201 205 206 203 201 195 197 201 204 209 212 214 213 217 224 224 225 220 220 234 235 223 217 243 259 259 278 294 284 306 330 10 16 26 35 16 355 346 344 344 345 345 348 350 350 350 348 347 348 351 354
317 332 24 254 280 29 25 87 109 110 138 161 120 127 141 158 218 37 27 58 130 106 70 38 51 332 334 117 142 174 176 191 339 324 299 268 253 249 232 222 211 197 197 200 207 210 203 204 205 206 207 202 200 203 206 211 214 215 213 214 222 224 224 223 220 223 239 244 232 250 266 260 259 267 268 281 297 318 338 342 342 332 327 337 342 343 348 347 348 349 348 348 350 350 349 350 354
348 348 350 261 304 34 49 84 112 133 163 111 108 133 155 117 60 44 347 349 73 75 68 68 48 289 18 114 144 176 172 312 322 310 301 280 256 254 249 237 226 218 211 210 209 206 207 211 210 207 207 205 204 206 207 211 215 217 217 217 222 224 222 223 224 222 227 243 247 255 265 263 260 265 272 276 283 286 302 316 321 321 312 318 333 338 343 343 347 350 348 346 348 350 350 352 354
348 337 296 279 318 54 58 91 144 170 149 107 121 144 147 95 89 71 359 29 70 65 46 66 228 249 352 90 142 186 334 333 315 306 301 283 258 245 244 247 238 234 227 220 215 210 206 210 217 212 210 207 205 209 210 211 212 215 220 221 221 223 222 220 222 226 227 233 241 246 248 252 257 259 261 262 266 272 285 297 305 315 309 308 320 330 336 340 348 352 349 348 349 350 351 354 356
324 331 301 291 245 159 209 116 127 172 120 111 133 149 149 129 138 103 59 37 69 156 80 100 203 208 291 5 101 286 316 327 313 298 280 269 310 291 259 244 241 239 237 233 226 222 213 207 211 213 216 215 210 208 209 212 213 215 220 222 223 222 224 224 224 228 230 234 246 253 244 240 247 250 250 255 261 268 274 283 291 297 298 297 306 319 331 337 345 349 348 348 347 350 355 355 357
350 16 319 255 213 137 194 169 108 133 107 118 144 160 171 142 158 164 129 254 256 173 146 155 223 235 248 290 334 304 316 319 309 256 196 136 75 353 300 261 244 237 237 239 234 232 228 219 214 211 215 223 223 213 206 210 213 215 220 224 226 225 225 227 230 231 236 244 252 260 255 245 247 252 251 261 272 278 284 293 292 287 289 291 301 316 326 330 337 343 343 345 345 344 351 356 1
351 338 238 255 197 101 315 62 95 142 130 133 138 147 228 136 154 167 271 230 217 181 139 164 222 218 231 246 304 306 311 308 24 133 150 144 143 179 249 252 247 248 242 242 239 238 236 232 227 221 215 217 226 224 213 207 210 214 218 224 226 227 228 230 232 234 240 247 250 251 254 254 257 262 261 266 275 283 291 294 295 296 300 301 308 316 320 325 331 339 343 348 350 346 343 349 1
315 287 277 309 54 47 11 58 59 58 108 121 116 100 292 109 129 137 278 223 203 178 128 146 132 116 226 257 308 299 277 345 83 98 118 149 172 195 232 246 250 255 253 249 244 242 240 238 235 232 228 221 220 223 218 209 208 212 217 223 224 226 231 235 238 238 242 246 251 249 246 255 260 262 263 268 271 279 288 290 294 298 301 304 310 314 316 322 330 342 348 351 352 353 353 351 355
320 319 333 37 83 72 41 64 60 37 71 104 108 105 276 346 103 111 312 277 220 130 112 139 118 119 227 274 290 263 197 106 94 86 96 127 185 212 234 244 250 254 255 256 251 247 244 241 239 237 237 231 221 218 217 207 196 204 215 221 222 226 230 236 240 239 240 239 243 241 234 242 248 249 256 272 279 280 285 289 296 300 298 300 305 309 313 318 328 343 350 351 347 349 355 352 354
332 340 47 53 27 78 69 69 71 53 55 64 77 79 280 170 142 158 286 295 318 80 92 131 130 149 213 269 266 227 169 127 119 109 105 126 173 221 238 242 251 252 253 258 255 252 248 246 244 242 242 236 228 221 215 202 181 194 208 204 210 223 228 231 233 231 234 233 230 229 227 230 234 238 241 260 279 284 284 287 296 301 299 302 305 305 307 312 321 337 346 350 345 342 345 346 350
315 36 85 58 1 51 91 82 83 70 54 57 51 340 336 72 234 258 249 266 139 124 133 149 159 186 221 258 244 210 182 155 155 170 176 189 200 222 238 243 251 253 255 257 256 255 251 249 248 247 245 239 235 222 211 199 176 185 191 181 192 210 223 226 224 220 221 227 230 229 230 228 224 228 236 240 251 260 268 283 295 298 299 305 309 305 303 305 315 329 338 343 334 326 330 332 335
324 92 85 68 18 53 99 102 110 98 59 52 284 303 352 342 293 273 240 220 178 173 206 239 233 223 224 230 212 196 188 192 225 240 250 252 254 253 255 258 258 255 255 254 254 256 252 250 248 248 246 242 236 220 210 191 169 179 184 185 191 198 215 223 222 219 220 228 232 230 231 233 227 225 232 236 238 240 247 260 274 279 281 292 297 292 293 298 312 320 321 318 307 306 313 317 323
274 218 111 91 27 57 114 144 172 164 194 222 284 299 286 285 284 264 200 198 215 215 245 254 233 205 193 197 190 189 195 219 240 249 259 263 269 270 275 278 274 266 261 257 255 254 251 249 244 239 225 218 222 218 204 171 174 192 191 193 196 198 210 223 224 220 219 223 221 222 232 240 239 233 232 239 244 244 245 245 248 258 260 263 266 267 271 277 285 284 283 283 286 293 299 309 319
263 2 97 96 315 220 165 177 205 210 214 233 265 269 262 256 254 239 185 199 228 233 238 217 185 171 175 179 181 212 231 242 248 248 256 265 272 278 284 286 282 277 269 260 255 253 251 243 233 226 202 183 181 179 170 171 186 197 194 195 198 199 206 218 222 214 213 220 215 220 234 242 243 242 244 250 253 251 248 246 244 243 242 242 245 248 250 253 262 266 274 279 282 286 294 309 319
3 14 20 329 237 222 206 200 211 211 214 225 232 247 256 245 237 243 185 202 225 222 206 181 162 165 168 176 208 243 255 254 257 260 264 268 274 282 288 288 285 278 268 259 250 243 241 232 223 215 193 177 166 164 175 186 191 192 194 198 199 201 206 213 219 217 221 237 240 239 249 254 254 251 253 257 263 268 263 255 249 236 230 239 241 247 256 262 274 285 290 292 290 289 293 300 305
7 341 315 283 260 246 219 217 226 210 207 209 199 247 253 211 209 226 183 205 219 199 186 170 164 179 189 214 237 248 252 249 252 255 261 266 271 277 280 283 284 278 263 249 234 223 222 218 204 187 174 175 175 176 184 190 188 188 191 193 199 204 208 210 214 216 222 238 244 249 255 258 261 256 256 258 265 276 275 268 270 261 244 246 246 250 264 272 281 289 293 297 297 295 297 295 293
353 323 302 270 250 243 225 225 228 203 200 204 203 257 245 156 204 213 187 200 200 179 175 169 176 199 217 234 245 249 247 241 240 241 247 253 255 262 266 270 275 274 260 234 210 196 188 185 179 170 171 177 176 176 182 188 187 188 190 191 195 202 209 212 212 211 213 227 239 245 250 253 256 250 249 255 264 274 275 273 281 289 277 262 251 244 251 260 270 289 297 301 304 304 304 303 306
321 290 291 279 253 240 221 214 211 195 187 186 186 264 237 196 203 182 182 185 168 164 171 170 185 212 227 236 237 239 239 238 239 239 243 246 249 251 251 255 262 266 259 208 173 164 156 155 157 157 164 171 173 178 180 184 189 185 185 187 189 201 213 216 217 219 224 235 244 247 251 255 252 242 236 245 267 275 272 271 273 285 298 298 278 258 254 264 276 293 298 301 306 305 300 299 302
294 251 229 289 290 256 210 193 177 172 167 167 162 244 246 210 168 158 174 174 160 162 173 177 190 212 228 238 239 240 234 237 242 244 251 256 258 253 240 235 237 238 220 171 151 146 139 132 132 143 156 160 165 178 178 179 187 179 173 175 181 198 208 211 217 226 238 241 239 230 224 235 240 240 236 232 240 246 248 261 273 282 294 301 298 284 274 286 291 292 295 298 298 296 293 291 290
280 271 199 227 273 291 185 157 150 158 175 171 165 261 264 173 145 162 176 173 167 169 176 183 190 203 224 229 235 250 244 242 251 252 257 262 261 254 235 212 197 185 172 153 139 137 134 128 128 130 139 151 154 160 166 172 179 173 170 173 178 192 199 206 210 206 213 202 178 148 124 120 115 127 185 221 231 238 260 275 281 284 285 292 299 296 290 293 294 293 295 296 294 292 291 285 282
209 243 259 225 195 240 164 155 169 172 174 178 173 254 252 140 150 170 176 177 176 177 182 184 189 196 215 221 211 231 244 243 250 253 253 256 253 248 231 194 166 148 141 133 129 128 125 129 136 133 129 144 151 149 154 161 166 170 175 177 179 188 193 191 180 164 147 134 128 112 106 115 123 125 127 123 115 89 318 287 282 274 270 277 286 288 289 291 294 295 294 292 291 292 289 284 285
196 189 254 253 203 215 169 177 195 163 134 185 200 244 275 135 164 177 183 186 182 186 190 186 193 197 203 212 199 211 237 243 244 245 242 242 235 234 219 169 149 139 134 129 129 126 119 126 137 141 142 147 149 154 162 165 166 172 177 174 169 162 157 152 144 138 126 122 117 110 107 110 123 128 123 116 100 82 69 46 325 273 260 277 286 292 294 292 293 292 294 294 294 296 294 292 293
220 189 224 246 239 231 194 201 207 169 156 207 213 232 262 182 167 182 191 189 186 195 198 189 194 199 199 203 200 208 220 228 239 238 232 227 219 216 193 160 149 135 129 130 128 124 120 120 121 128 135 137 139 149 159 159 157 160 157 152 146 138 136 133 130 132 129 130 126 119 116 110 112 112 106 110 115 113 99 85 53 259 282 291 298 310 312 309 307 304 306 305 307 309 305 303 303
254 223 217 257 258 241 231 209 179 179 195 238 215 223 248 210 170 186 193 190 192 199 199 193 195 196 198 200 198 199 194 213 237 242 231 218 212 207 183 159 149 140 139 142 136 130 129 127 126 125 126 132 138 141 142 143 145 146 141 138 137 135 133 132 132 132 128 131 132 126 123 116 104 98 97 100 112 130 146 163 200 233 280 298 309 314 320 326 327 325 320 319 325 326 321 319 316
290 306 288 301 301 267 265 105 166 184 201 235 231 239 252 227 179 186 193 193 197 202 198 191 191 192 196 196 196 196 195 217 238 243 231 215 207 201 178 156 147 146 150 151 144 143 145 144 141 137 136 140 143 144 144 146 148 145 140 137 134 133 134 133 130 127 125 127 126 124 125 119 109 100 93 93 101 119 139 150 185 284 334 335 335 341 357 1 355 349 340 335 343 346 340 342 343
290 331 293 289 290 274 282 118 164 175 197 234 242 257 263 258 219 189 190 192 199 206 198 188 189 191 193 192 193 197 203 221 239 237 221 209 200 191 173 161 154 152 151 149 146 147 150 151 148 144 144 147 146 143 142 143 144 139 137 136 133 132 131 129 127 123 120 117 113 110 105 96 92 88 82 81 86 88 87 84 79 74 65 53 48 48 46 44 40 34 24 12 11 9 2 6 8
259 267 282 277 262 265 274 167 155 117 76 258 265 273 269 268 258 184 175 184 202 206 198 190 193 193 194 194 192 197 207 221 231 222 209 202 193 182 171 167 162 158 155 152 151 150 150 150 153 151 148 146 142 139 137 135 135 135 136 136 132 126 119 117 116 108 102 99 96 93 90 87 86 85 84 83 84 83 80 78 75 71 67 62 58 58 55 51 48 43 35 24 19 14 11 11 7
253 250 273 264 260 275 284 104 125 105 92 269 279 281 271 266 269 193 175 189 206 207 204 200 197 192 191 194 193 198 208 216 216 209 202 195 186 178 170 168 164 160 158 157 155 154 154 153 154 153 148 144 139 135 134 131 130 134 133 128 125 118 112 109 105 100 98 97 95 92 89 87 86 85 83 80 78 75 72 69 66 63 61 58 54 52 48 43 40 35 30 25 20 15 12 11 7
243 233 241 248 252 264 269 119 173 177 202 262 292 289 274 263 267 230 189 191 195 196 199 198 195 192 192 195 197 202 206 206 202 198 195 188 181 174 168 166 163 159 158 158 158 158 157 156 154 151 149 146 140 136 134 129 127 130 128 124 123 120 114 111 108 104 101 99 96 92 88 85 82 79 76 71 67 64 61 57 54 50 47 44 38 34 31 30 29 26 24 21 17 14 13 13 11
230 216 219 238 242 234 239 231 189 185 220 238 275 290 273 241 242 236 177 165 160 169 180 179 178 183 188 192 195 203 207 200 193 189 187 184 178 172 168 166 164 161 159 159 161 161 160 157 155 153 152 149 142 136 131 127 126 128 128 127 126 123 118 115 113 108 104 100 95 90 84 79 74 70 65 60 56 52 48 45 41 36 33 30 25 23 23 22 21 18 18 15 12 14 16 14 11
244 217 214 223 238 251 268 314 359 340 286 224 154 277 271 237 234 221 143 143 176 171 184 192 184 178 180 183 183 189 195 194 191 187 184 183 177 170 168 168 167 164 164 165 164 162 160 157 156 155 153 147 140 135 132 131 132 131 130 130 127 125 121 117 113 108 106 101 94 89 84 78 71 64 59 54 49 45 40 37 32 27 24 22 20 19 18 17 16 14 14 11 10 11 10 7 8
255 254 238 215 225 261 311 339 344 283 284 257 141 221 270 291 270 197 163 194 201 182 195 204 198 192 187 182 180 180 181 186 187 185 184 182 177 170 170 171 170 168 167 167 165 161 159 157 156 154 149 144 141 139 138 137 135 132 130 127 122 121 122 119 114 110 108 102 96 91 84 78 70 62 58 52 46 40 36 30 26 23 19 18 17 14 12 13 13 12 11 9 8 8 4 3 6
239 284 354 94 173 258 283 294 250 242 300 278 178 183 274 281 255 179 171 189 204 202 205 205 198 196 194 189 188 185 182 184 185 184 184 181 176 173 172 172 171 170 169 166 164 161 159 156 154 151 148 144 141 139 138 136 133 131 129 125 123 123 123 120 118 116 109 104 101 95 87 80 72 63 55 47 40 34 29 25 22 18 15 14 13 10 11 12 11 10 9 7 7 6 5 7 7
226 239 42 75 86 39 309 256 250 285 319 265 191 163 257 277 240 154 167 189 215 214 206 202 194 191 192 190 191 191 186 186 186 184 182 179 177 176 174 171 170 170 169 165 163 160 157 156 153 151 149 145 143 142 140 137 133 131 130 130 131 130 128 126 126 124 118 113 111 102 93 83 72 60 48 40 33 27 23 20 17 14 12 11 10 9 9 9 8 7 7 7 8 8 8 10 8
185 146 78 74 77 60 38 261 240 306 276 237 193 166 215 272 246 142 166 219 228 224 204 194 190 188 189 186 185 188 187 186 185 183 180 179 178 176 173 171 170 169 167 164 162 160 158 157 155 153 152 151 149 147 144 140 137 138 137 137 140 138 139 139 135 130 125 123 117 106 95 80 66 53 42 34 26 22 19 15 13 10 9 9 8 8 7 7 8 8 9 9 8 9 9 9 9
152 140 92 90 89 71 62 253 116 296 266 225 188 181 196 268 239 168 192 222 214 209 183 178 183 183 185 183 181 182 184 184 182 181 181 180 178 174 172 171 169 168 166 165 164 162 161 159 159 159 157 157 154 151 150 146 144 146 146 146 149 147 144 141 137 133 130 128 121 106 91 75 59 45 34 26 20 16 14 11 9 7 7 6 5 5 5 5 6 6 7 6 5 5 6 6 6
141 126 109 115 59 50 40 251 140 230 259 221 184 189 194 229 246 189 194 217 210 195 173 171 176 178 181 181 180 180 181 182 181 181 181 179 176 174 173 172 170 169 168 167 167 165 164 164 165 165 162 161 158 155 155 153 151 154 155 154 152 147 142 139 139 138 135 130 118 100 85 66 48 35 26 17 13 11 9 7 6 5 3 2 1 1 1 0 0 359 358 357 356 356 356 355 355
157 128 124 126 152 9 272 204 180 227 251 269 197 196 209 230 247 244 230 230 246 191 171 170 170 175 180 180 180 180 180 181 181 182 181 177 175 173 172 172 171 171 170 169 169 168 169 169 169 169 167 164 162 160 160 160 159 160 159 157 153 149 147 148 148 143 137 129 116 100 80 56 37 26 17 11 9 8 7 5 3 2 0 360 359 358 356 354 353 352 350 349 348 347 346 346 346
179 157 152 161 171 214 237 212 224 243 245 286 326 165 258 269 256 248 239 215 37 97 164 174 174 177 180 179 179 180 181 182 183 183 180 177 175 174 173 173 173 172 172 172 172 172 173 172 172 173 172 168 166 166 166 166 165 163 161 160 160 161 160 157 153 146 141 136 127 112 77 48 26 16 13 10 9 7 4 2 0 359 358 357 355 353 352 350 348 347 346 345 344 344 343 343 342
193 177 171 184 171 195 226 203 226 257 279 304 310 146 196 218 235 250 250 85 62 80 154 171 175 176 176 175 177 179 181 183 184 183 180 177 176 176 175 175 175 174 174 175 176 176 176 175 175 177 177 172 171 172 171 171 168 166 167 169 171 172 168 161 155 151 153 154 153 149 108 42 15 12 11 8 6 3 360 359 358 357 356 354 352 351 349 348 346 346 345 345 345 344 343 343 342
211 172 188 219 194 195 240 205 172 160 335 293 229 230 223 202 189 141 75 70 65 74 141 157 163 168 170 172 176 180 182 184 185 184 181 179 178 179 178 178 177 178 178 179 180 179 180 179 178 180 182 178 176 177 175 175 175 174 176 179 179 175 169 165 164 166 172 177 179 180 180 20 12 11 10 6 2 0 0 0 359 357 355 354 352 351 350 349 348 348 347 347 347 345 344 344 342
189 170 198 209 147 177 233 277 67 106 275 256 180 245 284 278 271 153 116 87 71 54 149 153 159 165 169 174 178 181 184 185 187 185 182 181 182 182 182 182 182 182 182 183 182 183 183 184 182 182 184 183 180 180 180 180 182 182 182 182 180 176 172 174 179 183 186 187 189 190 197 357 14 11 6 3 1 1 1 359 357 355 352 351 350 350 349 349 349 348 348 347 347 346 344 343 340
138 183 196 133 61 33 189 275 348 173 252 259 177 212 229 199 245 168 131 148 185 220 192 160 162 168 173 179 182 184 185 186 187 187 185 184 185 185 185 186 186 186 186 186 185 185 186 187 187 186 187 186 184 184 185 186 187 186 186 184 181 179 180 186 191 194 194 192 194 195 199 243 8 5 360 359 359 358 355 352 351 349 347 347 346 347 347 346 346 345 344 343 343 342 340 338 336
133 196 213 128 125 230 153 196 249 204 242 277 209 208 205 196 212 174 179 202 196 197 199 179 174 176 180 184 184 185 185 186 188 189 188 188 188 188 189 189 189 189 189 189 188 188 187 188 190 190 191 191 189 188 188 189 190 190 189 186 184 185 190 197 199 198 198 196 198 204 208 228 312 343 348 351 350 348 346 345 344 343 342 343 343 343 343 343 342 341 340 339 338 337 335 334 334
46 339 292 116 150 190 168 194 223 189 236 273 250 214 218 215 195 176 195 207 188 181 194 193 186 186 187 185 185 186 188 189 191 191 191 192 191 192 192 192 192 191 191 191 191 191 190 190 191 192 194 194 193 192 192 192 193 192 191 188 189 195 199 202 202 201 201 201 206 213 219 232 269 311 327 335 338 340 340 340 339 338 338 338 340 341 341 340 339 338 337 336 335 334 333 333 334
180 204 215 196 172 131 140 239 216 188 230 256 261 262 252 241 195 179 193 199 182 179 188 193 191 190 190 189 188 189 191 193 193 193 194 195 195 195 194 195 194 194 194 194 194 193 193 193 194 194 196 195 194 194 195 196 195 193 193 194 197 202 204 205 204 203 203 207 215 221 224 235 257 288 308 323 332 336 336 335 334 333 333 335 337 339 339 338 337 336 335 334 333 333 332 332 333
190 194 193 191 185 158 200 241 207 194 224 215 232 263 254 242 322 181 182 186 184 184 183 187 191 190 191 193 194 194 194 195 195 195 197 198 198 197 196 196 196 196 197 197 196 196 196 196 197 198 198 197 197 197 198 199 197 195 196 200 204 206 206 206 206 205 207 213 221 225 228 238 256 277 301 320 328 332 332 330 329 329 331 333 334 335 335 335 334 334 333 332 331 331 330 330 330